629  
ASUS43 KDTX 292210  
RWRMI  
MICHIGAN HOURLY REGIONAL WEATHER ROUNDUP  
NATIONAL WEATHER SERVICE DETROIT/PONTIAC MI  
500 PM EST THU JAN 29 2015  
 
NOTE: "FAIR" INDICATES FEW OR NO CLOUDS BELOW 12,000 FEET WITH NO  
SIGNIFICANT WEATHER AND/OR TO VISIBILITY
.  
 
MIZ047>049-052>055-059>063-066>070-074>076-081>083-292300-  
SOUTHEAST LOWER MICHIGAN  
 
CITY SKY/WX TMP DP RH WIND PRES REMARKS
 
ADRIAN CLOUDY 33 29 85 NW9G17 29.87R WCI 25  
ALMA CLOUDY 32 29 90 NW10 29.88R FOG WCI 23  
ANN ARBOR LGT SNOW 32 28 85 NW13G20 29.84R FOG WCI 22  
BAD AXE CLOUDY 28 27 96 NW6 29.81R WCI 22  
CARO CLOUDY 31 26 84 W6 29.82R WCI 25  
DETROIT CITY LGT SNOW 33 28 81 NW8 29.81R VSB 1 WCI 26  
DETROIT LGT SNOW 32 28 86 W10 29.84R FOG WCI 24  
FLINT CLOUDY 32 27 81 NW13 29.84R HAZE WCI 22  
GROSSE ILE LGT SNOW 32 30 93 NW10G16 29.81R WCI 24  
HILLSDALE CLOUDY 33 29 87 NW15G23 29.86R WCI 22  
HOWELL CLOUDY 31 28 88 NW12G20 29.84R FOG WCI 21  
 
CITY SKY/WX TMP DP RH WIND PRES REMARKS
 
JACKSON CLOUDY 32 28 85 NW9 29.86R FOG WCI 24  
LAMBERTVILLE LGT SNOW 34 32 93 NW7 29.85R WCI 28  
LANSING CLOUDY 32 27 81 NW10 29.88R HAZE WCI 24  
LAPEER LGT SNOW 29 27 92 NW8 29.81R WCI 21  
MASON CLOUDY 31 27 83 NW10 29.86R WCI 22  
MONROE LGT SNOW 34 30 86 NW8 29.82R VSB 1 WCI 27  
MT. CLEMENS LGT SNOW 30 28 93 NW12 29.79R VSB 1 WCI 21  
PONTIAC LGT SNOW 30 27 88 NW12 29.80R FOG WCI 20  
PORT HOPE N/A 30 25 81 NW9 29.78R WCI 22  
PORT HURON LGT SNOW 28 28 100 NW9 29.79R VSB 3/4 WCI 20  
TRI CITIES CLOUDY 34 26 72 NW17 29.85R WCI 23  
TROY LGT SNOW 32 28 86 NW8 29.83R WCI 25  
SAGINAW HB CLOUDY 32 28 86 NW13 29.84R WCI 22  

 
MIZ043>046-050>051-056>058-064>065-071>073-077>080-292300-  
SOUTHWEST LOWER MICHIGAN  
 
CITY SKY/WX TMP DP RH WIND PRES REMARKS
 
BATTLE CREEK CLOUDY 33 28 81 NW16G22 29.91R HAZE WCI 23  
BENTON HARBOR CLOUDY 33 29 85 NW14G23 29.99R WCI 23  
BIG RAPIDS CLOUDY 32 26 78 N16G26 29.89R WCI 21  
COLDWATER CLOUDY 32 28 86 NW12 29.90R WCI 23  
FREMONT FLURRIES 32 27 84 NW13G25 29.93R WCI 22  
HOLLAND CLOUDY 34 26 72 NW12G23 29.97R WCI 25  
GRAND RAPIDS FLURRIES 32 27 81 NW18 29.92R WCI 20  
IONIA CLOUDY 32 29 88 NW13 29.89R FOG WCI 23  
KALAMAZOO CLOUDY 33 27 78 NW16 29.93R HAZE WCI 23  
LUDINGTON CLOUDY 36 27 71 N16G24 29.96R WCI 26  
MARSHALL CLOUDY 31 27 83 NW9 29.89R WCI 23  
MOUNT PLEASANT CLOUDY 32 27 81 NW13 29.86R WCI 23  
MUSKEGON CLOUDY 34 25 69 NW18G31 29.96R WCI 23  
SOUTH HAVEN FLURRIES 34 29 82 N14G22 29.98R WCI 25  

 
MIZ016>042-292300-  
NORTHERN LOWER MICHIGAN  
 
CITY SKY/WX TMP DP RH WIND PRES REMARKS
 
ALPENA CLOUDY 29 27 92 NW8 29.80R FOG WCI 21  
BEAVER ISLAND LGT SNOW 24 20 84 NW14G25 29.93R WCI 12  
BELLAIRE LGT SNOW 29 24 79 NW13G21 29.93R WCI 19  
CADILLAC CLOUDY 28 22 77 NW22G33 29.86R WCI 14  
CHARLEVOIX CLOUDY 26 22 84 NW23G32 29.95R WCI 12  
FRANKFORT CLOUDY 30 24 78 N16G24 29.97R WCI 18  
GAYLORD CLOUDY 26 24 92 NW14G26 29.83R WCI 14  
GRAYLING CLOUDY 28 25 86 NW22G29 29.85R WCI 14  
HARBOR SPRINGS CLOUDY 28 22 81 NW13G26 29.89R WCI 17  
HOUGHTON LAKE CLOUDY 28 23 81 NW16G28 29.84R WCI 16  
MANISTEE CLOUDY 30 25 80 N12G23 29.97R WCI 21  
OSCODA CLOUDY 31 26 83 NW10 29.79R WCI 22  
PELLSTON CLOUDY 27 22 81 NW22G32 29.88R WCI 13  
ROGERS CITY MIX PCPN 31 30 96 NW15G23 29.81R WCI 20  
TRAVERSE CITY FLURRIES 30 22 72 NW17G29 29.93R WCI 18  

 
MIZ007>008-015-292300-  
EASTERN UPPER MICHIGAN  
 
CITY SKY/WX TMP DP RH WIND PRES REMARKS
 
KINROSS CLOUDY 27 27 100 NW21G32 29.80R WCI 13  
MACKINAC ISLAN CLOUDY 27 23 85 NW14G24 29.85R WCI 16  
NEWBERRY LGT SNOW 21 19 90 NW13G25 29.90R WCI 9  
S. S. MARIE LGT SNOW 26 22 84 NW18G30 29.80R FOG WCI 13  
MUNISING N/A 22 15 75 N29G40 30.01R WCI 4  

 
MIZ004>006-011>014-085-292300-  
CENTRAL UPPER MICHIGAN  
 
CITY SKY/WX TMP DP RH WIND PRES REMARKS
 
MANISTIQUE LGT SNOW 21 17 85 NW18G32 29.95R WCI 6  
ESCANABA CLOUDY 27 16 63 N16G30 30.01R WCI 14  
MENOMINEE CLOUDY 30 18 59 N20G28 30.02R WCI 18  
SAWYER-GWINN SNOW 18 12 79 N24G31 30.02R VSB 1/2 WCI 0  

 
MIZ001>003-009>011-084-292300-  
WESTERN UPPER MICHIGAN  
 
CITY SKY/WX TMP DP RH WIND PRES REMARKS
 
IRON MOUNTAIN LGT SNOW 23 15 71 N28G37 30.03R WCI 6  
HOUGHTON LGT SNOW 18 9 68 N18G31 30.11R WCI 2  
COPPER HARBOR N/A 19 12 74 NE26G41 30.13R WCI 1  
IRONWOOD CLOUDY 21 14 73 NW17G24 30.15R WCI 7  

 
 
ABBREVIATIONS USED IN REMARKS  
TC - TEMPERATURE IN CELSIUS  
WCI - WIND CHILL INDEX  
HX - HEAT INDEX  
VSB - VISIBILITY  
 
CLICK HERE TO GO TO PREVIOUS BULLETINS.

The Nexlab MI Page Main Text Page